[[{"header":{"parameterUnit":"m.s-1","parameterCategory":2,"la1":30.2991,"la2":30.254,"lo1":-89.0895,"lo2":-89.0444,"dy":0.0017,"dx":0.0017,"nx":28,"ny":28,"refTime":"2024-04-25T21:00:00:Z","depth":"0","parameterNumber":2,"parameterNumberName":"U-component_of_CURRENTS"},"data":[0,0,0,0,0,0,0,0,0,0,0,0,0,0,0,0,0,0,0,0,0,0,0,0,0,0,0,0,0,0,0,0,0,0,0,0,0,0,0,0,0,0,0,0,0,0,0,0,0,0,0,0,0,0,0,0,0,0,-0.2791,-0.2792,0,-0.2816,-0.2816,-0.2816,-0.2796,-0.2796,-0.2795,-0.2795,-0.2777,-0.2777,-0.2777,0,0,0,0,0,0,0,0,0,0,0,0,0,-0.2717,-0.2719,-0.2791,-0.2792,-0.2792,-0.2816,-0.2816,-0.2816,-0.2796,-0.2796,-0.2795,-0.2794,-0.2777,-0.2777,-0.2777,0,0,0,0,0,0,0,0,0,0,0,0,0,-0.2744,-0.2719,-0.2791,-0.2787,-0.2788,-0.2816,-0.2816,-0.2816,-0.2797,-0.2796,-0.2795,-0.2794,-0.2777,-0.2777,-0.2777,-0.2795,0,0,-0.2777,-0.2777,0,0,0,0,0,0,0,0,-0.2742,-0.2746,-0.2787,-0.2788,-0.2788,-0.2805,-0.2784,-0.2808,-0.2797,-0.279,-0.2795,-0.2794,-0.2785,-0.2784,-0.2787,-0.2794,-0.2793,-0.2777,-0.2777,-0.2777,-0.2778,0,0,0,0,0,0,0,-0.274,-0.2745,-0.2798,-0.2788,-0.2789,-0.2782,-0.2784,-0.2788,-0.2789,-0.279,-0.279,-0.2798,-0.2784,-0.2787,-0.2787,-0.2793,-0.2777,-0.2777,-0.2778,-0.2778,-0.2799,-0.28,0,0,0,0,0,0,-0.2745,-0.2743,-0.2797,-0.2799,-0.2766,-0.2784,-0.2787,-0.2798,-0.279,-0.2789,-0.2799,-0.2797,-0.2787,-0.2787,-0.2786,-0.2806,-0.2777,-0.2778,-0.2778,-0.2799,-0.2799,-0.28,0,0,0,0,0,0,-0.2744,-0.275,-0.2796,-0.2774,-0.2779,-0.2787,-0.2799,-0.2799,-0.28,-0.2797,-0.2794,-0.28,-0.2787,-0.2786,-0.2793,-0.2805,-0.2778,-0.2778,-0.2798,-0.2799,-0.28,-0.2845,0,0,0,0,0,0,-0.2741,-0.2749,-0.2754,-0.2774,-0.2781,-0.2819,-0.28,-0.28,-0.2808,-0.2806,-0.2798,-0.2795,-0.2786,-0.2793,-0.2793,-0.2804,-0.2778,-0.2797,-0.2798,-0.2799,-0.2843,-0.2848,-0.2851,0,0,0,0,0,-0.2739,-0.2752,-0.2754,-0.276,-0.2789,-0.282,-0.2823,-0.2822,-0.2809,-0.2818,-0.281,-0.2795,-0.2798,-0.2794,-0.2793,-0.2805,-0.2797,-0.2798,-0.2799,-0.2841,-0.2847,-0.2851,0,0,0,0,0,0,-0.2718,-0.2752,-0.2755,-0.2776,-0.2799,-0.2818,-0.2823,-0.2826,-0.2827,-0.2819,-0.2807,-0.2805,-0.2814,-0.2805,-0.2799,-0.2813,-0.2793,-0.2795,-0.2825,-0.283,-0.2834,-0.2835,-0.2778,0,0,0,0,0,-0.2719,-0.2735,-0.2768,-0.2782,-0.2796,-0.2809,-0.2819,-0.2825,-0.2832,-0.2831,-0.2827,-0.2819,-0.2821,-0.2821,-0.282,-0.2832,-0.2817,-0.2837,-0.2842,-0.2845,-0.2845,-0.2841,-0.2844,-0.2804,-0.2804,-0.2804,0,0,-0.2712,-0.2733,-0.274,-0.2778,-0.2791,-0.2822,-0.2812,-0.2833,-0.2853,-0.283,-0.2844,-0.2836,-0.2827,-0.284,-0.2842,-0.2832,-0.2848,-0.2847,-0.285,-0.2848,-0.2842,-0.2846,-0.285,-0.2805,-0.2804,-0.2804,0,0,-0.2714,-0.2729,-0.2748,-0.2776,-0.281,-0.2825,-0.2835,-0.286,-0.2863,-0.2884,-0.2869,-0.2868,-0.2872,-0.2869,-0.2868,-0.2894,-0.2871,-0.2892,-0.2915,-0.2911,-0.2914,-0.2917,-0.2901,-0.2902,-0.2894,-0.2894,-0.2894,0,-0.2703,-0.2736,-0.2757,-0.2791,-0.2814,-0.283,-0.2861,-0.2877,-0.2899,-0.2904,-0.2892,-0.2896,-0.2887,-0.2902,-0.2907,-0.2904,-0.2893,-0.2899,-0.2916,-0.2919,-0.2921,-0.2904,-0.2905,-0.2896,-0.2896,-0.2896,-0.2895,0,-0.2728,-0.2758,-0.2773,-0.2821,-0.2849,-0.2878,-0.2913,-0.2931,-0.2934,-0.2945,-0.2957,-0.2947,-0.2945,-0.2945,-0.2934,-0.2947,-0.2931,-0.2923,-0.2905,-0.2928,-0.2909,-0.2908,-0.29,-0.2899,-0.2898,-0.2897,0,0,-0.2686,-0.2774,-0.2775,-0.2805,-0.2869,-0.289,-0.2934,-0.2972,-0.299,-0.3,-0.3016,-0.3016,-0.3,-0.2997,-0.2983,-0.298,-0.2982,-0.2959,-0.2958,-0.2945,-0.2966,-0.2878,-0.2869,-0.2979,-0.2979,-0.298,-0.2946,0,-0.2694,-0.2757,-0.2803,-0.2856,-0.289,-0.2933,-0.2973,-0.3009,-0.3026,-0.3046,-0.3039,-0.3044,-0.3025,-0.3018,-0.3016,-0.2996,-0.2984,-0.2991,-0.2944,-0.2942,-0.2863,-0.2867,-0.2754,-0.2708,-0.2946,-0.2946,-0.2945,0,-0.2692,-0.2741,-0.2797,-0.2877,-0.2895,-0.2929,-0.2984,-0.3022,-0.3063,-0.3076,-0.3086,-0.3081,-0.3083,-0.3055,-0.3034,-0.3041,-0.3003,-0.2982,-0.298,-0.2881,-0.2853,-0.2724,-0.2698,-0.2684,-0.2945,-0.2945,-0.2945,0,-0.2634,-0.2725,-0.2765,-0.2795,-0.2894,-0.2919,-0.2961,-0.3018,-0.3046,-0.3084,-0.3099,-0.311,-0.31,-0.3078,-0.303,-0.3036,-0.2994,-0.2997,-0.2879,-0.2873,-0.2757,-0.2739,-0.271,-0.2965,-0.2965,-0.2966,-0.2966,0,-0.2615,-0.2642,-0.2739,-0.2763,-0.2803,-0.2883,-0.2921,-0.2967,-0.3031,-0.3053,-0.3095,-0.3101,-0.3104,-0.3081,-0.3042,-0.2952,-0.3,-0.2877,-0.2857,-0.2768,-0.2753,-0.2718,-0.2747,-0.2964,-0.2965,-0.2965,-0.2965,0,-0.253,-0.2604,-0.2646,-0.2747,-0.2774,-0.2791,-0.2885,-0.2913,-0.2989,-0.3019,-0.303,-0.3087,-0.3057,-0.304,-0.2996,-0.2946,-0.2831,-0.2832,-0.2721,-0.2687,-0.2562,-0.2598,-0.2538,-0.2464,-0.271,-0.2707,-0.2705,0,-0.2489,-0.2505,-0.2596,-0.2619,-0.2659,-0.2711,-0.2749,-0.2858,-0.2893,-0.2994,-0.2995,-0.3006,-0.2978,-0.2898,-0.281,-0.272,-0.2719,-0.2568,-0.2553,-0.2531,-0.2557,-0.2582,-0.2528,-0.2423,-0.2418,-0.2415,-0.2412,0,-0.2396,-0.2423,-0.2461,-0.2509,-0.2549,-0.2596,-0.2661,-0.2695,-0.2816,-0.2849,-0.2881,-0.2877,-0.2817,-0.2688,-0.2584,-0.251,-0.2512,-0.2493,-0.2503,-0.235,-0.2344,-0.2271,-0.2476,-0.2382,-0.2385,-0.2387,-0.2389,-0.239,-0.2294,-0.2293,-0.2341,-0.2369,-0.2419,-0.2453,-0.2447,-0.253,-0.2563,-0.2582,-0.2683,-0.2627,-0.259,-0.2424,-0.236,-0.2212,-0.2272,-0.2147,-0.2199,-0.2232,-0.2137,-0.2266,-0.2129,-0.213,-0.2132,-0.2133,-0.2134,0,-0.2155,-0.2176,-0.2202,-0.2229,-0.2218,-0.2299,-0.2357,-0.2325,-0.2305,-0.235,-0.2337,-0.2307,-0.2201,-0.2179,-0.2068,-0.1967,-0.1921,-0.1916,-0.1942,-0.1903,-0.203,-0.1992,-0.1778,-0.1778,-0.1778,-0.1778,-0.1778,-0.1778,-0.2083,-0.2056,-0.2075,-0.2007,-0.2028,-0.1977,-0.198,-0.1941,-0.1944,-0.1869,-0.1861,-0.1888,-0.1949,-0.2109,-0.1995,-0.1886,-0.1849,-0.1773,-0.181,-0.1933,-0.196,-0.1985,-0.1955,-0.1737,-0.1737,-0.16,-0.1599,-0.1599]},{"header":{"parameterUnit":"m.s-1","parameterCategory":2,"la1":30.2991,"la2":30.254,"lo1":-89.0895,"lo2":-89.0444,"dy":0.0017,"dx":0.0017,"nx":28,"ny":28,"refTime":"2024-04-25T21:00:00:Z","depth":"0","parameterNumber":3,"parameterNumberName":"V-component_of_CURRENTS"},"data":[0,0,0,0,0,0,0,0,0,0,0,0,0,0,0,0,0,0,0,0,0,0,0,0,0,0,0,0,0,0,0,0,0,0,0,0,0,0,0,0,0,0,0,0,0,0,0,0,0,0,0,0,0,0,0,0,0,0,-0.0204,-0.0204,0,-0.0112,-0.0111,-0.011,-0.0046,-0.0046,-0.0045,-0.0045,0.0082,0.0085,0.0088,0,0,0,0,0,0,0,0,0,0,0,0,0,-0.0263,-0.0262,-0.0205,-0.0203,-0.0202,-0.0112,-0.0111,-0.011,-0.0046,-0.0046,-0.0045,-0.0045,0.0081,0.0085,0.0088,0,0,0,0,0,0,0,0,0,0,0,0,0,-0.0209,-0.0262,-0.0205,-0.0161,-0.0157,-0.0113,-0.0111,-0.0109,-0.0046,-0.0046,-0.0045,-0.0045,0.008,0.0084,0.0089,0.0108,0,0,0.0103,0.0105,0,0,0,0,0,0,0,0,-0.0212,-0.0207,-0.0169,-0.0164,-0.0159,-0.0092,-0.0085,-0.0036,-0.0046,-0.0086,-0.0045,-0.0044,0.0026,0.0035,0.0053,0.0114,0.0119,0.0103,0.0106,0.0108,0.0109,0,0,0,0,0,0,0,-0.0216,-0.021,-0.0166,-0.0168,-0.0162,-0.0125,-0.0117,-0.0075,-0.0032,-0.0083,-0.0078,-0.0071,0.0029,0.0048,0.0056,0.0121,0.0103,0.0107,0.011,0.0112,0.022,0.022,0,0,0,0,0,0,-0.0235,-0.0214,-0.0169,-0.0164,-0.0187,-0.0125,-0.0116,-0.0112,-0.0033,-0.0021,-0.0071,-0.0068,0.004,0.0051,0.0061,0.0088,0.0108,0.0112,0.0115,0.022,0.022,0.022,0,0,0,0,0,0,-0.0237,-0.0232,-0.0173,-0.0188,-0.0178,-0.0125,-0.0121,-0.0111,-0.0092,-0.0025,-0.0012,-0.0064,0.0041,0.0055,0.0096,0.0094,0.0114,0.0119,0.022,0.022,0.022,0.0143,0,0,0,0,0,0,-0.0239,-0.0233,-0.0239,-0.0189,-0.0178,-0.0157,-0.0121,-0.0109,-0.0089,-0.0084,-0.0014,-0.0002,0.0042,0.0089,0.0101,0.01,0.0122,0.022,0.022,0.022,0.0145,0.014,0.0136,0,0,0,0,0,-0.0241,-0.0255,-0.024,-0.0235,-0.0187,-0.0158,-0.0149,-0.0108,-0.0089,-0.0088,-0.0037,-0.0004,0.0099,0.0093,0.0107,0.0107,0.022,0.022,0.022,0.0147,0.0141,0.0136,0,0,0,0,0,0,-0.0282,-0.0248,-0.0231,-0.0233,-0.0203,-0.0148,-0.0144,-0.0115,-0.0073,-0.0068,-0.0003,0.0013,0.0048,0.0089,0.008,0.014,0.0165,0.0168,0.0105,0.01,0.0095,0.0079,0.0126,0,0,0,0,0,-0.0296,-0.0298,-0.0255,-0.0258,-0.0246,-0.0197,-0.018,-0.0153,-0.0109,-0.0091,-0.0041,0.0014,0.006,0.0087,0.0132,0.0164,0.0215,0.0175,0.017,0.0166,0.0163,0.0234,0.0235,0.0221,0.0221,0.0221,0,0,-0.0312,-0.0295,-0.0295,-0.0267,-0.024,-0.0233,-0.0185,-0.0169,-0.0158,-0.0084,-0.0055,-0.0004,0.0064,0.0099,0.0119,0.0134,0.0198,0.0166,0.0162,0.0162,0.0234,0.0235,0.0237,0.0221,0.0221,0.0221,0,0,-0.0355,-0.0332,-0.035,-0.0329,-0.0299,-0.0265,-0.0265,-0.0215,-0.0188,-0.0155,-0.0097,-0.0047,0.0019,0.0071,0.0106,0.0104,0.0168,0.0117,0.0086,0.0153,0.0155,0.0157,0.0226,0.0235,0.0119,0.0119,0.0118,0,-0.0379,-0.0392,-0.0351,-0.036,-0.0349,-0.0286,-0.0298,-0.0261,-0.0203,-0.0178,-0.0159,-0.0047,0.0007,0.0065,0.0064,0.0093,0.0142,0.0097,0.0146,0.015,0.0153,0.0224,0.0234,0.0115,0.0115,0.0116,0.0116,0,-0.0431,-0.044,-0.0448,-0.0439,-0.0419,-0.0419,-0.0364,-0.034,-0.0298,-0.0252,-0.019,-0.011,-0.0041,-0.0016,0.0024,0.0076,0.0106,0.0127,0.0155,0.0149,0.0225,0.0237,0.011,0.0111,0.0112,0.0113,0,0,-0.049,-0.049,-0.0492,-0.0502,-0.0461,-0.0452,-0.043,-0.0388,-0.0368,-0.03,-0.0261,-0.0177,-0.0123,-0.008,-0.0015,0.0046,0.0113,0.0089,0.0095,0.0149,0.0267,0.0323,0.0343,0.0141,0.0143,0.0144,0.0311,0,-0.0546,-0.0594,-0.0565,-0.0593,-0.061,-0.0543,-0.0526,-0.0474,-0.0413,-0.0357,-0.0258,-0.0199,-0.0149,-0.0113,-0.0045,0.0079,0.0142,0.0067,0.0273,0.028,0.0323,0.0358,0.0396,0.055,0.0323,0.0325,0.0327,0,-0.0608,-0.063,-0.0679,-0.0674,-0.0672,-0.067,-0.0621,-0.0597,-0.0496,-0.0445,-0.0361,-0.0275,-0.0166,-0.0129,0.0072,0.0021,0.0131,0.0224,0.0233,0.032,0.0359,0.0521,0.0582,0.0761,0.0347,0.0345,0.0344,0,-0.0679,-0.0705,-0.0749,-0.0749,-0.0731,-0.0729,-0.0708,-0.0628,-0.0599,-0.0497,-0.0455,-0.0315,-0.0229,-0.0083,0.0114,0.0095,0.0341,0.0343,0.0497,0.0502,0.0594,0.0605,0.0846,0.0474,0.0473,0.0473,0.0472,0,-0.0753,-0.0784,-0.079,-0.0813,-0.085,-0.0802,-0.0805,-0.076,-0.0679,-0.0631,-0.051,-0.0428,-0.0215,-0.0043,0.0113,0.0359,0.0348,0.0505,0.0554,0.0569,0.0575,0.0782,0.0843,0.0479,0.0478,0.0477,0.0476,0,-0.0826,-0.0833,-0.0882,-0.0886,-0.089,-0.0914,-0.0884,-0.0874,-0.0791,-0.0722,-0.069,-0.0493,-0.0261,-0.0038,0.0235,0.0372,0.0707,0.067,0.0675,0.0722,0.101,0.1063,0.1334,0.1439,0.0864,0.0867,0.0869,0,-0.0871,-0.0906,-0.0946,-0.0981,-0.0989,-0.1009,-0.1016,-0.0945,-0.0916,-0.0748,-0.0713,-0.0479,-0.0274,0.0146,0.043,0.0735,0.0841,0.0923,0.0889,0.1052,0.1149,0.117,0.1239,0.0987,0.099,0.0992,0.0994,0,-0.0944,-0.0955,-0.0996,-0.1074,-0.1105,-0.1129,-0.1123,-0.1109,-0.0995,-0.09,-0.0706,-0.0523,-0.0097,0.0298,0.0678,0.0841,0.1057,0.0979,0.116,0.1279,0.131,0.1425,0.0847,0.1015,0.1013,0.1011,0.101,0.1009,-0.0985,-0.1039,-0.1092,-0.1158,-0.1202,-0.1222,-0.1208,-0.1151,-0.1071,-0.085,-0.0702,-0.0356,0.0172,0.0735,0.0939,0.1342,0.1271,0.1434,0.1491,0.1502,0.1592,0.1058,0.1266,0.1266,0.1265,0.1265,0.1264,0,-0.1037,-0.1092,-0.1168,-0.1238,-0.1284,-0.1285,-0.1252,-0.1167,-0.1029,-0.0789,-0.0547,0.0066,0.0596,0.1068,0.1624,0.1841,0.1879,0.1929,0.1978,0.2028,0.1584,0.1577,0.1848,0.1848,0.1848,0.1848,0.1848,0.1848,-0.1067,-0.1154,-0.1194,-0.1284,-0.1322,-0.1308,-0.1266,-0.1077,-0.0872,-0.0435,-0.0055,0.0236,0.085,0.1747,0.2271,0.2304,0.2494,0.2461,0.2571,0.2267,0.2225,0.2184,0.2196,0.2593,0.2594,0.2995,0.2999,0.3002]}],[{"header":{"parameterUnit":"m.s-1","parameterCategory":2,"la1":30.2991,"la2":30.254,"lo1":-89.0895,"lo2":-89.0444,"dy":0.0017,"dx":0.0017,"nx":28,"ny":28,"refTime":"2024-04-25T21:00:00:Z","depth":"2","parameterNumber":2,"parameterNumberName":"U-component_of_CURRENTS"},"data":[0,0,0,0,0,0,0,0,0,0,0,0,0,0,0,0,0,0,0,0,0,0,0,0,0,0,0,0,0,0,0,0,0,0,0,0,0,0,0,0,0,0,0,0,0,0,0,0,0,0,0,0,0,0,0,0,0,0,-0.2588,-0.2589,0,-0.2618,-0.2618,-0.2618,-0.2606,-0.2605,-0.2605,-0.2605,-0.2596,-0.2596,-0.2596,0,0,0,0,0,0,0,0,0,0,0,0,0,-0.251,-0.2511,-0.2588,-0.2589,-0.259,-0.2618,-0.2618,-0.2618,-0.2606,-0.2605,-0.2605,-0.2604,-0.2596,-0.2596,-0.2596,0,0,0,0,0,0,0,0,0,0,0,0,0,-0.2539,-0.2512,-0.2588,-0.2589,-0.259,-0.2618,-0.2618,-0.2618,-0.2606,-0.2605,-0.2605,-0.2604,-0.2596,-0.2596,-0.2596,-0.261,0,0,-0.2597,-0.2597,0,0,0,0,0,0,0,0,-0.2538,-0.2542,-0.2588,-0.2589,-0.259,-0.261,-0.2587,-0.2615,-0.2606,-0.2597,-0.2605,-0.2604,-0.26,-0.2599,-0.2603,-0.261,-0.2609,-0.2597,-0.2597,-0.2597,-0.2597,0,0,0,0,0,0,0,-0.2536,-0.254,-0.2597,-0.2589,-0.259,-0.2585,-0.2588,-0.2592,-0.2598,-0.2597,-0.2597,-0.2606,-0.2599,-0.2602,-0.2602,-0.2609,-0.2597,-0.2597,-0.2597,-0.2597,-0.2625,-0.2625,0,0,0,0,0,0,-0.254,-0.2539,-0.2596,-0.2598,-0.2565,-0.2587,-0.259,-0.2602,-0.2599,-0.2599,-0.2606,-0.2605,-0.2602,-0.2602,-0.2602,-0.2627,-0.2597,-0.2597,-0.2597,-0.2624,-0.2625,-0.2626,0,0,0,0,0,0,-0.2538,-0.2545,-0.2595,-0.2571,-0.2577,-0.2589,-0.2602,-0.2603,-0.2609,-0.2607,-0.2605,-0.2612,-0.2602,-0.2601,-0.2612,-0.2626,-0.2597,-0.2598,-0.2624,-0.2624,-0.2625,-0.2672,0,0,0,0,0,0,-0.2536,-0.2544,-0.2551,-0.2572,-0.2579,-0.2619,-0.2603,-0.2604,-0.2616,-0.2615,-0.2612,-0.261,-0.2601,-0.2612,-0.2612,-0.2626,-0.2598,-0.2623,-0.2624,-0.2625,-0.267,-0.2675,-0.2679,0,0,0,0,0,-0.2533,-0.2547,-0.2551,-0.2558,-0.2589,-0.262,-0.2623,-0.2627,-0.2617,-0.2628,-0.2623,-0.261,-0.2619,-0.2613,-0.2613,-0.2627,-0.2622,-0.2624,-0.2625,-0.2668,-0.2674,-0.2678,0,0,0,0,0,0,-0.2514,-0.2549,-0.2553,-0.2576,-0.26,-0.2619,-0.2628,-0.2632,-0.2637,-0.2632,-0.2622,-0.2621,-0.2634,-0.2625,-0.2619,-0.2637,-0.2617,-0.2618,-0.2649,-0.2655,-0.2659,-0.266,-0.2598,0,0,0,0,0,-0.2516,-0.2533,-0.2567,-0.2583,-0.2597,-0.2613,-0.2624,-0.2632,-0.2642,-0.2643,-0.2642,-0.2638,-0.2641,-0.2643,-0.2643,-0.2658,-0.2642,-0.2665,-0.2669,-0.2673,-0.2674,-0.2669,-0.2673,-0.263,-0.263,-0.263,0,0,-0.251,-0.2533,-0.2541,-0.258,-0.2595,-0.2625,-0.2617,-0.2642,-0.2663,-0.2642,-0.2661,-0.2655,-0.2648,-0.2663,-0.2668,-0.2657,-0.2677,-0.2675,-0.2678,-0.2677,-0.2671,-0.2675,-0.2679,-0.2631,-0.2631,-0.2631,0,0,-0.2516,-0.2533,-0.2553,-0.2581,-0.2616,-0.2632,-0.2643,-0.267,-0.2677,-0.2701,-0.2687,-0.269,-0.2698,-0.2696,-0.2695,-0.2723,-0.27,-0.2723,-0.2748,-0.2744,-0.2747,-0.275,-0.2733,-0.2734,-0.2725,-0.2725,-0.2725,0,-0.2507,-0.2542,-0.2563,-0.2596,-0.262,-0.2638,-0.267,-0.2687,-0.2713,-0.2721,-0.2712,-0.2721,-0.2713,-0.273,-0.2737,-0.2734,-0.2723,-0.273,-0.275,-0.2752,-0.2754,-0.2736,-0.2736,-0.2728,-0.2727,-0.2727,-0.2727,0,-0.2534,-0.2565,-0.2581,-0.2629,-0.2658,-0.2688,-0.2723,-0.2744,-0.2752,-0.2764,-0.2782,-0.2773,-0.2775,-0.2776,-0.2766,-0.278,-0.2764,-0.2756,-0.2737,-0.2761,-0.274,-0.274,-0.2731,-0.273,-0.2729,-0.2729,0,0,-0.2499,-0.2583,-0.2586,-0.2615,-0.2679,-0.2701,-0.2746,-0.2786,-0.2806,-0.2822,-0.2841,-0.2844,-0.2832,-0.283,-0.2818,-0.2815,-0.2818,-0.2795,-0.2793,-0.2779,-0.2801,-0.2715,-0.2706,-0.2816,-0.2816,-0.2816,-0.2779,0,-0.251,-0.2571,-0.2616,-0.2669,-0.2703,-0.2746,-0.2787,-0.2824,-0.2845,-0.2868,-0.2865,-0.2874,-0.2857,-0.2854,-0.2852,-0.283,-0.282,-0.2828,-0.2778,-0.2776,-0.2698,-0.2704,-0.2508,-0.2451,-0.2778,-0.2778,-0.2778,0,-0.2512,-0.2558,-0.2614,-0.2691,-0.271,-0.2745,-0.2802,-0.2841,-0.2885,-0.2901,-0.2915,-0.2913,-0.2916,-0.2891,-0.2869,-0.2877,-0.284,-0.2818,-0.2816,-0.2719,-0.269,-0.248,-0.2438,-0.2777,-0.2777,-0.2777,-0.2777,0,-0.2459,-0.2548,-0.2589,-0.2618,-0.2713,-0.274,-0.2782,-0.284,-0.2869,-0.2912,-0.2929,-0.2942,-0.2934,-0.2913,-0.2865,-0.2871,-0.2829,-0.2829,-0.2715,-0.2709,-0.2521,-0.2497,-0.2801,-0.2801,-0.2801,-0.2801,-0.2801,0,-0.2445,-0.2473,-0.2566,-0.259,-0.2632,-0.2709,-0.275,-0.2796,-0.2861,-0.2884,-0.2928,-0.2933,-0.2939,-0.2916,-0.2877,-0.2787,-0.2833,-0.2714,-0.2693,-0.2531,-0.251,-0.2777,-0.2775,-0.28,-0.28,-0.28,-0.2801,0,-0.237,-0.244,-0.2482,-0.2579,-0.2606,-0.2626,-0.2718,-0.2747,-0.2823,-0.2854,-0.2867,-0.2922,-0.2889,-0.2875,-0.283,-0.278,-0.2718,-0.2668,-0.2473,-0.2429,-0.2601,-0.2602,-0.2551,-0.2547,-0.2545,-0.2542,-0.254,0,-0.2334,-0.2351,-0.2438,-0.246,-0.2501,-0.2554,-0.2592,-0.2698,-0.273,-0.2827,-0.2826,-0.2838,-0.2805,-0.2724,-0.2632,-0.2542,-0.262,-0.2318,-0.2292,-0.2591,-0.2576,-0.2581,-0.2585,-0.2061,-0.2055,-0.2051,-0.2047,0,-0.2249,-0.2277,-0.2313,-0.2359,-0.24,-0.2444,-0.2506,-0.2537,-0.2652,-0.2684,-0.2707,-0.2698,-0.2631,-0.245,-0.2349,-0.2271,-0.2324,-0.2219,-0.2569,-0.2161,-0.2127,-0.2114,-0.2134,-0.2005,-0.2009,-0.2012,-0.2015,-0.2016,-0.2158,-0.2157,-0.2202,-0.223,-0.2278,-0.2305,-0.2288,-0.2367,-0.2393,-0.2393,-0.2494,-0.2394,-0.2374,-0.2104,-0.1998,-0.1902,-0.2054,-0.1963,-0.1978,-0.1998,-0.1954,-0.1918,-0.1747,-0.175,-0.1752,-0.1754,-0.1756,0,-0.2029,-0.2048,-0.2072,-0.2094,-0.2078,-0.2157,-0.2198,-0.2129,-0.2092,-0.2135,-0.2107,-0.1864,-0.1775,-0.1752,-0.1547,-0.1519,-0.1508,-0.1453,-0.1444,-0.1485,-0.1522,-0.1456,-0.1115,-0.1114,-0.1112,-0.1111,0,0,-0.1962,-0.1934,-0.1947,-0.1873,-0.1889,-0.1808,-0.1794,-0.1697,-0.1668,-0.155,-0.1499,-0.1642,-0.1689,-0.1399,-0.1338,-0.1194,-0.1323,-0.113,-0.164,-0.1668,-0.1703,-0.1808,-0.175,0,0,0,0,0]},{"header":{"parameterUnit":"m.s-1","parameterCategory":2,"la1":30.2991,"la2":30.254,"lo1":-89.0895,"lo2":-89.0444,"dy":0.0017,"dx":0.0017,"nx":28,"ny":28,"refTime":"2024-04-25T21:00:00:Z","depth":"2","parameterNumber":3,"parameterNumberName":"V-component_of_CURRENTS"},"data":[0,0,0,0,0,0,0,0,0,0,0,0,0,0,0,0,0,0,0,0,0,0,0,0,0,0,0,0,0,0,0,0,0,0,0,0,0,0,0,0,0,0,0,0,0,0,0,0,0,0,0,0,0,0,0,0,0,0,-0.0272,-0.0272,0,-0.0184,-0.0183,-0.0182,-0.0121,-0.0121,-0.012,-0.012,0.0001,0.0004,0.0007,0,0,0,0,0,0,0,0,0,0,0,0,0,-0.0331,-0.033,-0.0273,-0.0272,-0.0271,-0.0184,-0.0183,-0.0182,-0.0121,-0.0121,-0.012,-0.012,0.0,0.0004,0.0007,0,0,0,0,0,0,0,0,0,0,0,0,0,-0.0279,-0.033,-0.0273,-0.0231,-0.0227,-0.0185,-0.0183,-0.0181,-0.0121,-0.0121,-0.012,-0.012,-0.0001,0.0004,0.0008,0.0026,0,0,0.0021,0.0023,0,0,0,0,0,0,0,0,-0.0282,-0.0277,-0.0238,-0.0234,-0.0229,-0.0165,-0.0159,-0.0111,-0.0121,-0.016,-0.012,-0.012,-0.0052,-0.0044,-0.0026,0.0032,0.0037,0.0022,0.0025,0.0026,0.0028,0,0,0,0,0,0,0,-0.0286,-0.028,-0.0236,-0.0237,-0.0232,-0.0197,-0.019,-0.0149,-0.0108,-0.0156,-0.0152,-0.0145,-0.0049,-0.0031,-0.0023,0.0039,0.0022,0.0026,0.0028,0.003,0.0134,0.0134,0,0,0,0,0,0,-0.0304,-0.0284,-0.0239,-0.0233,-0.0257,-0.0197,-0.0188,-0.0184,-0.0109,-0.0098,-0.0145,-0.0142,-0.0039,-0.0028,-0.0018,0.0013,0.0026,0.0031,0.0033,0.0134,0.0134,0.0134,0,0,0,0,0,0,-0.0305,-0.0301,-0.0242,-0.0258,-0.0248,-0.0197,-0.0193,-0.0183,-0.0164,-0.0101,-0.0089,-0.0137,-0.0038,-0.0025,0.0016,0.0018,0.0033,0.0037,0.0134,0.0134,0.0134,0.0071,0,0,0,0,0,0,-0.0307,-0.0302,-0.0306,-0.0259,-0.0248,-0.0226,-0.0193,-0.0182,-0.0161,-0.0157,-0.009,-0.0078,-0.0036,0.0009,0.002,0.0024,0.004,0.0134,0.0134,0.0134,0.0073,0.0069,0.0066,0,0,0,0,0,-0.031,-0.0321,-0.0307,-0.0302,-0.0256,-0.0227,-0.0218,-0.0179,-0.0162,-0.0159,-0.0111,-0.008,0.0018,0.0012,0.0026,0.0031,0.0134,0.0134,0.0134,0.0075,0.007,0.0066,0,0,0,0,0,0,-0.0348,-0.0314,-0.0299,-0.0299,-0.027,-0.0218,-0.0213,-0.0185,-0.0145,-0.014,-0.0079,-0.0064,-0.0029,0.0009,0.0001,0.0062,0.0082,0.0084,0.0032,0.0028,0.0024,0.001,0.0044,0,0,0,0,0,-0.036,-0.0361,-0.032,-0.0321,-0.031,-0.0263,-0.0247,-0.0221,-0.0179,-0.0161,-0.0113,-0.0062,-0.0017,0.001,0.0052,0.0085,0.013,0.0098,0.0095,0.0091,0.0089,0.0157,0.0159,0.0135,0.0135,0.0135,0,0,-0.0375,-0.0358,-0.0357,-0.033,-0.0303,-0.0295,-0.0252,-0.0234,-0.0221,-0.0154,-0.0124,-0.0076,-0.0012,0.0024,0.0044,0.0057,0.0122,0.0091,0.0088,0.0088,0.0158,0.016,0.0162,0.0136,0.0136,0.0135,0,0,-0.0412,-0.0391,-0.0406,-0.0385,-0.0355,-0.0323,-0.0322,-0.0274,-0.0247,-0.0215,-0.0161,-0.0112,-0.0049,0.0004,0.0037,0.004,0.0096,0.0051,0.0028,0.0093,0.0096,0.0098,0.0155,0.0164,0.0054,0.0054,0.0054,0,-0.0434,-0.0443,-0.0405,-0.0411,-0.0398,-0.0341,-0.0349,-0.0313,-0.0257,-0.0232,-0.0216,-0.0108,-0.0056,0.0005,0.0006,0.0032,0.0074,0.0037,0.0088,0.0091,0.0095,0.0154,0.0164,0.0051,0.0051,0.0052,0.0052,0,-0.0477,-0.0483,-0.0489,-0.0477,-0.0456,-0.0455,-0.0402,-0.0377,-0.0338,-0.0294,-0.0233,-0.0157,-0.009,-0.0064,-0.0028,0.0028,0.0049,0.007,0.0095,0.0094,0.0155,0.0167,0.0047,0.0048,0.0049,0.0049,0,0,-0.0531,-0.0525,-0.0527,-0.0534,-0.0492,-0.0482,-0.0457,-0.0414,-0.0394,-0.0328,-0.0289,-0.0204,-0.0155,-0.0114,-0.0053,0.0008,0.0072,0.0044,0.0049,0.0094,0.0212,0.0255,0.0272,0.01,0.0102,0.0103,0.0243,0,-0.0579,-0.0617,-0.0588,-0.0609,-0.0621,-0.0558,-0.0539,-0.0487,-0.043,-0.0377,-0.028,-0.0224,-0.0175,-0.0141,-0.0073,0.0039,0.01,0.0032,0.0213,0.0219,0.0251,0.0286,0.0234,0.0356,0.0254,0.0256,0.0258,0,-0.0632,-0.065,-0.0689,-0.068,-0.0677,-0.0673,-0.0626,-0.06,-0.0504,-0.0456,-0.0374,-0.0294,-0.0186,-0.0151,0.0037,-0.0009,0.009,0.0175,0.0183,0.0253,0.0283,0.0344,0.0382,0.0278,0.0276,0.0275,0.0273,0,-0.0699,-0.0717,-0.0754,-0.0751,-0.0729,-0.0727,-0.0706,-0.0629,-0.0602,-0.0503,-0.0466,-0.0329,-0.0251,-0.0112,0.0069,0.0054,0.0277,0.0282,0.0415,0.0419,0.0427,0.0429,0.0407,0.0407,0.0407,0.0407,0.0406,0,-0.0765,-0.0791,-0.0793,-0.0812,-0.0846,-0.0797,-0.08,-0.0757,-0.068,-0.064,-0.0517,-0.0444,-0.0238,-0.0082,0.0065,0.0286,0.028,0.0423,0.0465,0.0403,0.0402,0.0372,0.0366,0.0412,0.0411,0.041,0.0409,0,-0.0836,-0.0838,-0.088,-0.088,-0.0884,-0.0907,-0.088,-0.0871,-0.0791,-0.0732,-0.0702,-0.0515,-0.0303,-0.0093,0.016,0.0289,0.0487,0.056,0.0474,0.0503,0.0581,0.057,0.0723,0.0725,0.0728,0.073,0.0731,0,-0.0877,-0.0908,-0.0943,-0.0977,-0.0983,-0.1003,-0.1011,-0.0943,-0.0918,-0.0765,-0.0736,-0.0522,-0.0339,0.0047,0.0306,0.0585,0.0566,0.0681,0.0649,0.0592,0.0617,0.0603,0.0589,0.0633,0.0634,0.0634,0.0635,0,-0.0948,-0.0958,-0.0995,-0.1071,-0.1103,-0.1125,-0.1122,-0.1112,-0.1006,-0.0924,-0.0753,-0.059,-0.0208,0.0112,0.0461,0.0602,0.0633,0.0704,0.0689,0.0558,0.0518,0.0539,0.0527,0.064,0.064,0.0639,0.0639,0.0639,-0.0992,-0.1043,-0.1094,-0.1159,-0.1202,-0.1225,-0.1228,-0.1175,-0.1109,-0.0933,-0.0776,-0.0493,-0.0199,0.0321,0.0556,0.0753,0.0746,0.0774,0.0767,0.0761,0.0723,0.0689,0.0836,0.0836,0.0837,0.0837,0.0838,0,-0.1049,-0.1101,-0.1175,-0.1246,-0.1299,-0.1296,-0.1283,-0.1255,-0.1154,-0.0925,-0.0715,-0.0382,0.0004,0.0302,0.0641,0.0845,0.0804,0.0845,0.0748,0.0742,0.0736,0.0692,0.08,0.0801,0.0801,0.0802,0,0,-0.1081,-0.1167,-0.1206,-0.1309,-0.1352,-0.1389,-0.1372,-0.1311,-0.1157,-0.0919,-0.0668,-0.0336,0.0029,0.0259,0.0495,0.0666,0.0643,0.0663,0.0667,0.0515,0.0508,0.0665,0.0587,0,0,0,0,0]}],[{"header":{"parameterUnit":"m.s-1","parameterCategory":2,"la1":30.2991,"la2":30.254,"lo1":-89.0895,"lo2":-89.0444,"dy":0.0017,"dx":0.0017,"nx":28,"ny":28,"refTime":"2024-04-25T21:00:00:Z","depth":"4","parameterNumber":2,"parameterNumberName":"U-component_of_CURRENTS"},"data":[0,0,0,0,0,0,0,0,0,0,0,0,0,0,0,0,0,0,0,0,0,0,0,0,0,0,0,0,0,0,0,0,0,0,0,0,0,0,0,0,0,0,0,0,0,0,0,0,0,0,0,0,0,0,0,0,0,0,-0.1851,-0.1852,0,-0.193,-0.1931,-0.1931,-0.1984,-0.1984,-0.1985,-0.1985,-0.2057,-0.2058,-0.206,0,0,0,0,0,0,0,0,0,0,0,0,0,-0.173,-0.1732,-0.1851,-0.1852,-0.1853,-0.193,-0.1931,-0.1932,-0.1983,-0.1984,-0.1985,-0.1985,-0.2057,-0.2058,-0.206,0,0,0,0,0,0,0,0,0,0,0,0,0,-0.1791,-0.1733,-0.1851,-0.189,-0.1895,-0.193,-0.1931,-0.1932,-0.1983,-0.1984,-0.1985,-0.1986,-0.2056,-0.2058,-0.206,-0.2056,0,0,-0.2067,-0.2067,0,0,0,0,0,0,0,0,-0.1787,-0.1795,-0.1883,-0.1888,-0.1893,-0.195,-0.1915,-0.1974,-0.1983,-0.1947,-0.1985,-0.1986,-0.2022,-0.2027,-0.2036,-0.2059,-0.2062,-0.2067,-0.2068,-0.2069,-0.2069,0,0,0,0,0,0,0,-0.1783,-0.1792,-0.188,-0.1884,-0.189,-0.1899,-0.1909,-0.1926,-0.1976,-0.195,-0.1955,-0.1967,-0.2024,-0.2034,-0.2038,-0.2063,-0.2067,-0.2068,-0.207,-0.2071,-0.2163,-0.2165,0,0,0,0,0,0,-0.1779,-0.1788,-0.1877,-0.1882,-0.1844,-0.1901,-0.1911,-0.1929,-0.1977,-0.1986,-0.1967,-0.1969,-0.203,-0.2036,-0.2041,-0.212,-0.2069,-0.2071,-0.2072,-0.2162,-0.2164,-0.2165,0,0,0,0,0,0,-0.1776,-0.1786,-0.1874,-0.1838,-0.1851,-0.1903,-0.1921,-0.193,-0.1975,-0.199,-0.1998,-0.2007,-0.2031,-0.2038,-0.2088,-0.212,-0.2072,-0.2074,-0.2161,-0.2163,-0.2164,-0.2225,0,0,0,0,0,0,-0.1772,-0.1784,-0.181,-0.1838,-0.1853,-0.1919,-0.1921,-0.1931,-0.198,-0.1986,-0.2026,-0.2032,-0.2032,-0.2085,-0.209,-0.2122,-0.2075,-0.2159,-0.2162,-0.2164,-0.2222,-0.2229,-0.2235,0,0,0,0,0,-0.1767,-0.1794,-0.181,-0.1822,-0.1881,-0.192,-0.1929,-0.1966,-0.1982,-0.2008,-0.2037,-0.2032,-0.2103,-0.2088,-0.2094,-0.2127,-0.2158,-0.2161,-0.2164,-0.2219,-0.2228,-0.2235,0,0,0,0,0,0,-0.1757,-0.1803,-0.1821,-0.1863,-0.1901,-0.1931,-0.1963,-0.1985,-0.2028,-0.2043,-0.2052,-0.206,-0.2113,-0.2111,-0.2095,-0.2159,-0.2128,-0.2132,-0.2168,-0.2176,-0.2183,-0.2176,-0.2077,0,0,0,0,0,-0.1765,-0.18,-0.184,-0.1877,-0.1899,-0.1937,-0.1963,-0.199,-0.2024,-0.2046,-0.2074,-0.21,-0.2122,-0.2145,-0.2162,-0.2202,-0.218,-0.2225,-0.2231,-0.2237,-0.2235,-0.2234,-0.2241,-0.2174,-0.2174,-0.2174,0,0,-0.1772,-0.1802,-0.1824,-0.1878,-0.191,-0.195,-0.1956,-0.2007,-0.2047,-0.2046,-0.2116,-0.2129,-0.2138,-0.2182,-0.2205,-0.2191,-0.2244,-0.2241,-0.2246,-0.224,-0.2238,-0.2244,-0.225,-0.2176,-0.2176,-0.2175,0,0,-0.1791,-0.1831,-0.1865,-0.1901,-0.1959,-0.1982,-0.2005,-0.2056,-0.209,-0.2149,-0.2154,-0.2187,-0.2233,-0.2241,-0.2249,-0.2302,-0.2278,-0.2315,-0.2349,-0.2349,-0.2354,-0.2359,-0.2334,-0.2336,-0.2321,-0.2321,-0.2321,0,-0.18,-0.1847,-0.1881,-0.1923,-0.1959,-0.2001,-0.2044,-0.2082,-0.2146,-0.2172,-0.2182,-0.2245,-0.2256,-0.2294,-0.2313,-0.2318,-0.2306,-0.2319,-0.2358,-0.2361,-0.2365,-0.2338,-0.2339,-0.2324,-0.2324,-0.2323,-0.2323,0,-0.1834,-0.1887,-0.1912,-0.1978,-0.2019,-0.2067,-0.2118,-0.2168,-0.2212,-0.2241,-0.2302,-0.2317,-0.2348,-0.2361,-0.2357,-0.2391,-0.2371,-0.2364,-0.2335,-0.2375,-0.2345,-0.2345,-0.2329,-0.2327,-0.2326,-0.2326,0,0,-0.1812,-0.1916,-0.1929,-0.1971,-0.2055,-0.2088,-0.2161,-0.2224,-0.2269,-0.2326,-0.2373,-0.2413,-0.2419,-0.2427,-0.2428,-0.2434,-0.2446,-0.2417,-0.2415,-0.2388,-0.2434,-0.2278,-0.2262,-0.2453,-0.2453,-0.2454,-0.2401,0,-0.1832,-0.1912,-0.1964,-0.2046,-0.2089,-0.2154,-0.2214,-0.2278,-0.233,-0.2385,-0.2408,-0.2451,-0.2445,-0.2463,-0.2471,-0.2455,-0.245,-0.246,-0.2402,-0.2399,-0.2253,-0.2258,-0.2455,-0.24,-0.24,-0.24,-0.24,0,-0.184,-0.1896,-0.1979,-0.2079,-0.2106,-0.2164,-0.2258,-0.2316,-0.2394,-0.2433,-0.2478,-0.2496,-0.2521,-0.2507,-0.2496,-0.2506,-0.2474,-0.2454,-0.2452,-0.2281,-0.2242,-0.2354,-0.2399,-0.2399,-0.2399,-0.24,-0.24,0,-0.1785,-0.1901,-0.1968,-0.2005,-0.2125,-0.218,-0.2242,-0.2331,-0.2377,-0.246,-0.2492,-0.253,-0.2543,-0.2529,-0.2491,-0.2502,-0.2457,-0.2463,-0.2287,-0.2276,-0.2407,-0.2403,-0.2442,-0.2442,-0.2442,-0.2442,-0.2442,0,-0.1764,-0.182,-0.1955,-0.199,-0.2066,-0.216,-0.2239,-0.2306,-0.2395,-0.2428,-0.2506,-0.2514,-0.2552,-0.2533,-0.2498,-0.2374,-0.2458,-0.2279,-0.2249,-0.2433,-0.2433,-0.2406,-0.2403,-0.244,-0.2441,-0.2441,-0.2441,0,-0.1685,-0.1781,-0.1858,-0.1996,-0.2043,-0.2092,-0.2224,-0.2267,-0.2369,-0.2412,-0.2437,-0.2503,-0.2466,-0.247,-0.2432,-0.2353,-0.2273,-0.2208,-0.2388,-0.2372,-0.2092,-0.2093,-0.2007,-0.2001,-0.1996,-0.1991,-0.1988,0,-0.1646,-0.1684,-0.1834,-0.1879,-0.1949,-0.2044,-0.21,-0.2229,-0.2263,-0.2371,-0.2363,-0.2385,-0.2401,-0.2208,-0.2242,-0.2151,-0.2126,-0.2078,-0.2098,-0.2066,-0.2047,-0.2055,-0.2063,-0.198,-0.1978,-0.1977,-0.1976,0,-0.1562,-0.1632,-0.1694,-0.1783,-0.186,-0.1928,-0.2015,-0.2028,-0.2152,-0.2269,-0.2214,-0.2181,-0.2131,-0.2084,-0.2022,-0.1965,-0.211,-0.2024,-0.2035,-0.2054,-0.2032,-0.202,-0.2033,-0.1958,-0.196,-0.1962,-0.1963,0,-0.1491,-0.1509,-0.1597,-0.1655,-0.1747,-0.1771,-0.1844,-0.1872,-0.1918,-0.2045,-0.2013,-0.2036,-0.2099,-0.1984,-0.1928,-0.1857,-0.1835,-0.1783,-0.1806,-0.1826,-0.1791,-0.1739,-0.1532,0,0,0,0,0,-0.1407,-0.1409,-0.1459,-0.151,-0.1594,-0.1632,-0.1763,-0.1838,-0.1963,-0.1869,-0.1936,-0.1878,-0.1797,-0.1811,-0.1694,-0.1849,-0.1847,-0.1708,-0.1803,-0.186,-0.188,-0.1855,0,0,0,0,0,0,-0.1349,-0.1392,-0.1404,-0.1368,-0.1366,-0.1429,-0.1501,-0.1597,-0.1557,-0.169,-0.1646,-0.1744,-0.1684,-0.1803,-0.1638,-0.1643,-0.1664,-0.1735,-0.173,-0.1848,-0.1867,-0.1883,-0.1865,0,0,0,0,0]},{"header":{"parameterUnit":"m.s-1","parameterCategory":2,"la1":30.2991,"la2":30.254,"lo1":-89.0895,"lo2":-89.0444,"dy":0.0017,"dx":0.0017,"nx":28,"ny":28,"refTime":"2024-04-25T21:00:00:Z","depth":"4","parameterNumber":3,"parameterNumberName":"V-component_of_CURRENTS"},"data":[0,0,0,0,0,0,0,0,0,0,0,0,0,0,0,0,0,0,0,0,0,0,0,0,0,0,0,0,0,0,0,0,0,0,0,0,0,0,0,0,0,0,0,0,0,0,0,0,0,0,0,0,0,0,0,0,0,0,-0.0241,-0.0241,0,-0.018,-0.0179,-0.0178,-0.0137,-0.0137,-0.0136,-0.0136,-0.004,-0.0038,-0.0036,0,0,0,0,0,0,0,0,0,0,0,0,0,-0.0279,-0.0279,-0.0241,-0.0241,-0.024,-0.018,-0.0179,-0.0178,-0.0137,-0.0137,-0.0136,-0.0136,-0.0041,-0.0038,-0.0035,0,0,0,0,0,0,0,0,0,0,0,0,0,-0.0243,-0.0279,-0.0242,-0.0213,-0.021,-0.018,-0.0179,-0.0178,-0.0137,-0.0137,-0.0136,-0.0136,-0.0042,-0.0039,-0.0035,-0.0017,0,0,-0.0024,-0.0022,0,0,0,0,0,0,0,0,-0.0246,-0.0242,-0.0218,-0.0215,-0.0212,-0.0167,-0.0157,-0.0123,-0.0137,-0.0163,-0.0136,-0.0136,-0.0081,-0.0074,-0.0061,-0.0013,-0.0009,-0.0024,-0.0022,-0.002,-0.0019,0,0,0,0,0,0,0,-0.0248,-0.0244,-0.0215,-0.0218,-0.0214,-0.0189,-0.0184,-0.015,-0.0122,-0.0161,-0.0158,-0.0154,-0.0079,-0.0065,-0.0059,-0.0007,-0.0024,-0.0021,-0.0018,-0.0017,0.007,0.007,0,0,0,0,0,0,-0.0261,-0.0247,-0.0217,-0.0214,-0.023,-0.0189,-0.0183,-0.018,-0.0123,-0.0115,-0.0154,-0.0152,-0.0071,-0.0063,-0.0055,-0.0024,-0.002,-0.0017,-0.0015,0.007,0.007,0.007,0,0,0,0,0,0,-0.0262,-0.0259,-0.022,-0.023,-0.0223,-0.0189,-0.0186,-0.0179,-0.0168,-0.0119,-0.0109,-0.015,-0.0071,-0.006,-0.0028,-0.0021,-0.0015,-0.0012,0.0069,0.007,0.007,0.0033,0,0,0,0,0,0,-0.0264,-0.026,-0.0266,-0.0231,-0.0223,-0.0209,-0.0186,-0.0178,-0.0166,-0.0163,-0.0112,-0.0103,-0.007,-0.0034,-0.0025,-0.0016,-0.0009,0.0069,0.007,0.007,0.0034,0.0032,0.003,0,0,0,0,0,-0.0265,-0.0274,-0.0266,-0.0263,-0.0231,-0.021,-0.0204,-0.0177,-0.0166,-0.0165,-0.0129,-0.0104,-0.0026,-0.0031,-0.002,-0.001,0.0069,0.0069,0.007,0.0035,0.0032,0.003,0,0,0,0,0,0,-0.0291,-0.0269,-0.0261,-0.0262,-0.0242,-0.0204,-0.0202,-0.0183,-0.0153,-0.0151,-0.0103,-0.0091,-0.0061,-0.0032,-0.004,0.0016,0.0026,0.0029,-0.0004,-0.0006,-0.0008,-0.0017,-0.0006,0,0,0,0,0,-0.0301,-0.0304,-0.0275,-0.0278,-0.027,-0.0238,-0.0227,-0.0209,-0.0178,-0.0165,-0.0129,-0.0089,-0.0051,-0.0028,0.0005,0.0036,0.0068,0.005,0.0048,0.0046,0.0046,0.0105,0.0109,0.0071,0.0071,0.0071,0,0,-0.0313,-0.0301,-0.0303,-0.0284,-0.0266,-0.0258,-0.023,-0.0219,-0.0207,-0.0159,-0.0134,-0.0098,-0.0046,-0.0013,0.0004,0.0013,0.0071,0.0046,0.0044,0.0045,0.0106,0.011,0.0113,0.0071,0.0071,0.0071,0,0,-0.0337,-0.0327,-0.0337,-0.0322,-0.0303,-0.028,-0.028,-0.0246,-0.0226,-0.0201,-0.016,-0.0118,-0.0069,-0.0021,0.0008,0.0016,0.0054,0.0022,0.0012,0.007,0.0074,0.0078,0.0111,0.0118,0.0027,0.0026,0.0026,0,-0.0354,-0.0359,-0.0336,-0.0338,-0.033,-0.0293,-0.0297,-0.0269,-0.0228,-0.0209,-0.0201,-0.0112,-0.0069,-0.0009,-0.0006,0.0013,0.004,0.0016,0.0068,0.0072,0.0077,0.011,0.0119,0.0025,0.0025,0.0025,0.0025,0,-0.0378,-0.0384,-0.0389,-0.0379,-0.0365,-0.0364,-0.0325,-0.0308,-0.0283,-0.0248,-0.0197,-0.0135,-0.0081,-0.0057,-0.0028,0.0028,0.0033,0.0053,0.0072,0.0078,0.0113,0.0122,0.0022,0.0023,0.0023,0.0024,0,0,-0.0413,-0.0409,-0.0413,-0.0419,-0.0389,-0.0383,-0.036,-0.0326,-0.0312,-0.026,-0.0229,-0.0151,-0.0116,-0.0081,-0.0031,0.0025,0.0079,0.0047,0.0051,0.0077,0.0188,0.0167,0.0175,0.0107,0.0108,0.011,0.0195,0,-0.0442,-0.0467,-0.0447,-0.0463,-0.0471,-0.0429,-0.0413,-0.0374,-0.0334,-0.0295,-0.0212,-0.0169,-0.0124,-0.0101,-0.0035,0.0051,0.0104,0.0053,0.0182,0.0185,0.0164,0.0186,0.0115,0.0202,0.0204,0.0206,0.0207,0,-0.0472,-0.0486,-0.0514,-0.0513,-0.0511,-0.0512,-0.0482,-0.0462,-0.0388,-0.0354,-0.0285,-0.0224,-0.0128,-0.01,0.0057,0.002,0.0096,0.0164,0.0169,0.017,0.0182,0.02,0.0224,0.0223,0.0222,0.0221,0.022,0,-0.0516,-0.0531,-0.0561,-0.056,-0.0548,-0.0552,-0.0543,-0.0486,-0.047,-0.0394,-0.037,-0.025,-0.0194,-0.0073,0.0067,0.0062,0.0232,0.0246,0.03,0.0299,0.0307,0.0303,0.0352,0.0352,0.0352,0.0352,0.0352,0,-0.0552,-0.0577,-0.0592,-0.0608,-0.0644,-0.061,-0.0624,-0.0593,-0.0541,-0.0516,-0.0412,-0.0361,-0.0184,-0.0065,0.0058,0.0205,0.0229,0.0302,0.0326,0.0287,0.0279,0.0313,0.0308,0.0355,0.0354,0.0354,0.0353,0,-0.0593,-0.0602,-0.0643,-0.0658,-0.067,-0.0697,-0.0698,-0.0698,-0.0642,-0.0605,-0.0583,-0.0437,-0.0279,-0.0108,0.0096,0.0184,0.0332,0.0375,0.0307,0.0325,0.0359,0.035,0.0443,0.0443,0.0443,0.0443,0.0443,0,-0.0614,-0.064,-0.0695,-0.0734,-0.075,-0.0783,-0.0802,-0.0761,-0.0748,-0.0645,-0.0625,-0.0474,-0.036,-0.0086,0.0087,0.0314,0.0344,0.0408,0.0399,0.0357,0.0372,0.0363,0.0355,0.0443,0.0443,0.0443,0.0443,0,-0.0653,-0.0679,-0.0716,-0.0803,-0.0849,-0.0883,-0.0899,-0.0892,-0.0822,-0.0778,-0.0641,-0.0483,-0.0307,-0.009,0.0084,0.0248,0.0363,0.0409,0.041,0.0403,0.0359,0.0371,0.0363,0.0444,0.0444,0.0444,0.0444,0,-0.0684,-0.0728,-0.0789,-0.0859,-0.0927,-0.0958,-0.0955,-0.0911,-0.088,-0.0748,-0.0705,-0.0495,-0.0364,-0.0124,0.0039,0.0195,0.0232,0.0275,0.0283,0.0285,0.0213,0.0132,0.0174,0,0,0,0,0,-0.071,-0.0764,-0.0838,-0.0914,-0.098,-0.1012,-0.1007,-0.0981,-0.0911,-0.0822,-0.0754,-0.058,-0.0308,-0.0185,-0.0032,0.0019,0.0237,0.02,0.0284,0.0446,0.0445,0.0386,0,0,0,0,0,0,-0.073,-0.0806,-0.0844,-0.0943,-0.1002,-0.106,-0.1055,-0.1003,-0.093,-0.0837,-0.0688,-0.0577,-0.0314,-0.0409,-0.0045,0.0004,0.0073,0.0337,0.0339,0.0446,0.0446,0.0445,0.0384,0,0,0,0,0]}]]